[[{"header":{"parameterUnit":"m.s-1","parameterCategory":1,"la1":30.2991,"la2":30.254,"lo1":-89.0895,"lo2":-89.0444,"dy":0.0017,"dx":0.0017,"nx":28,"ny":28,"refTime":"2025-01-13T03:00:00:Z","depth":0,"parameterNumber":2,"parameterNumberName":"U-component_of_WINDS"},"data":[0,0,0,0,0,0,0,0,0,0,0,0,0,0,0,0,0,0,0,0,0,0,0,0,0,0,0,0,0,0,0,0,0,0,0,0,0,0,0,0,0,0,0,0,0,0,0,0,0,0,0,0,0,0,0,0,0,0,-1.8087,-1.8088,0,-1.8121,-1.8121,-1.8121,-1.8029,-1.8026,-1.8023,-1.8021,-1.8059,-1.8063,-1.8067,0,0,0,0,0,0,0,0,0,0,0,0,0,-1.7947,-1.795,-1.8087,-1.8088,-1.8088,-1.8121,-1.8121,-1.8122,-1.803,-1.8026,-1.8023,-1.8019,-1.8058,-1.8063,-1.8067,0,0,0,0,0,0,0,0,0,0,0,0,0,-1.7997,-1.7951,-1.8087,-1.8046,-1.8043,-1.8121,-1.8121,-1.8122,-1.803,-1.8026,-1.8022,-1.8018,-1.8057,-1.8062,-1.8068,-1.8188,0,0,-1.8085,-1.8087,0,0,0,0,0,0,0,0,-1.7995,-1.8003,-1.8052,-1.8049,-1.8045,-1.8066,-1.8086,-1.8144,-1.8031,-1.8035,-1.8021,-1.8016,-1.8065,-1.807,-1.8086,-1.819,-1.8192,-1.8085,-1.8089,-1.8091,-1.8093,0,0,0,0,0,0,0,-1.7991,-1.8001,-1.8101,-1.8052,-1.8049,-1.8027,-1.8029,-1.8096,-1.8074,-1.8034,-1.8028,-1.8033,-1.8063,-1.8081,-1.8086,-1.8192,-1.8085,-1.809,-1.8093,-1.8096,-1.8398,-1.8402,0,0,0,0,0,0,-1.7992,-1.7998,-1.8099,-1.8102,-1.8009,-1.8033,-1.8036,-1.8064,-1.8073,-1.807,-1.8036,-1.8028,-1.8073,-1.808,-1.8087,-1.823,-1.8091,-1.8096,-1.8099,-1.8393,-1.8399,-1.8404,0,0,0,0,0,0,-1.799,-1.8002,-1.8098,-1.8048,-1.8059,-1.804,-1.8073,-1.8067,-1.8085,-1.8075,-1.8071,-1.8059,-1.807,-1.8079,-1.8164,-1.823,-1.8099,-1.8104,-1.8388,-1.8395,-1.8401,-1.8517,0,0,0,0,0,0,-1.7986,-1.8002,-1.8047,-1.805,-1.8062,-1.8174,-1.8077,-1.8071,-1.8094,-1.8084,-1.8094,-1.8092,-1.8068,-1.8156,-1.8169,-1.8235,-1.8108,-1.8382,-1.8391,-1.8399,-1.8507,-1.8527,-1.8544,0,0,0,0,0,-1.7982,-1.8079,-1.805,-1.8063,-1.8117,-1.8178,-1.8184,-1.8153,-1.81,-1.8145,-1.8139,-1.8092,-1.822,-1.8165,-1.818,-1.8248,-1.8377,-1.8388,-1.8398,-1.8499,-1.8523,-1.8543,0,0,0,0,0,0,-1.8087,-1.8079,-1.8046,-1.8147,-1.8164,-1.8162,-1.8219,-1.818,-1.8213,-1.8202,-1.8162,-1.8166,-1.8258,-1.8261,-1.82,-1.8366,-1.829,-1.8304,-1.8361,-1.8384,-1.8402,-1.8401,-1.8113,0,0,0,0,0,-1.8121,-1.8169,-1.816,-1.825,-1.826,-1.8238,-1.8263,-1.8237,-1.8253,-1.826,-1.826,-1.8278,-1.8322,-1.8353,-1.8393,-1.8506,-1.8508,-1.856,-1.8578,-1.8593,-1.8607,-1.8668,-1.8691,-1.8439,-1.8438,-1.8438,0,0,-1.8194,-1.8195,-1.8229,-1.8271,-1.8281,-1.8333,-1.8245,-1.8304,-1.8342,-1.8269,-1.8349,-1.8349,-1.8367,-1.8467,-1.851,-1.8472,-1.8677,-1.8607,-1.8619,-1.8624,-1.8681,-1.8705,-1.8726,-1.8446,-1.8444,-1.8443,0,0,-1.8353,-1.8358,-1.8434,-1.8445,-1.846,-1.8445,-1.8463,-1.8467,-1.8464,-1.8543,-1.8489,-1.8535,-1.8612,-1.8627,-1.8645,-1.8809,-1.8768,-1.8823,-1.892,-1.898,-1.9,-1.9018,-1.9078,-1.91,-1.8836,-1.8836,-1.8836,0,-1.8443,-1.8518,-1.8479,-1.8541,-1.8562,-1.8496,-1.8574,-1.8587,-1.8615,-1.8632,-1.8587,-1.8683,-1.869,-1.8792,-1.8832,-1.8848,-1.8869,-1.8823,-1.9,-1.9017,-1.9033,-1.909,-1.9113,-1.8843,-1.8842,-1.8841,-1.8841,0,-1.8627,-1.868,-1.874,-1.8767,-1.8795,-1.8865,-1.8837,-1.887,-1.8841,-1.883,-1.8912,-1.8918,-1.8959,-1.898,-1.8953,-1.9079,-1.9055,-1.9006,-1.893,-1.9065,-1.9118,-1.9139,-1.8853,-1.885,-1.8848,-1.8846,0,0,-1.8857,-1.886,-1.8883,-1.8895,-1.8906,-1.8947,-1.9013,-1.9051,-1.9081,-1.9102,-1.9158,-1.9224,-1.9178,-1.9199,-1.9172,-1.9225,-1.9356,-1.9169,-1.9169,-1.9206,-1.9497,-1.9535,-1.9561,-1.9327,-1.9331,-1.9334,-1.9496,0,-1.9016,-1.9129,-1.9096,-1.9211,-1.926,-1.9197,-1.9255,-1.9269,-1.926,-1.9302,-1.9292,-1.934,-1.9276,-1.9288,-1.9336,-1.933,-1.9414,-1.9317,-1.9381,-1.9384,-1.9381,-1.9588,-1.963,-1.9782,-1.9516,-1.9519,-1.9522,0,-1.9217,-1.9244,-1.9364,-1.9366,-1.9386,-1.9439,-1.9471,-1.951,-1.9525,-1.9515,-1.9537,-1.95,-1.9567,-1.9487,-1.9579,-1.9514,-1.9538,-1.9539,-1.9544,-1.9551,-1.9463,-1.9604,-1.983,-1.9854,-1.9554,-1.9551,-1.9549,0,-1.9375,-1.9442,-1.9522,-1.9533,-1.9538,-1.9577,-1.9581,-1.959,-1.9615,-1.9643,-1.9659,-1.9695,-1.9716,-1.9745,-1.9719,-1.9663,-1.9816,-1.9734,-1.9812,-1.9813,-1.985,-1.9848,-2.0086,-1.9861,-1.986,-1.986,-1.9859,0,-1.9558,-1.9634,-1.9593,-1.9643,-1.9726,-1.9687,-1.9771,-1.9767,-1.9776,-1.9825,-1.9772,-1.982,-1.9781,-1.9825,-1.9805,-1.9886,-1.9895,-1.989,-1.9884,-1.9896,-1.9897,-1.9914,-1.9903,-1.9866,-1.9865,-1.9863,-1.9862,0,-1.975,-1.9725,-1.9809,-1.9805,-1.9806,-1.9868,-1.9865,-1.9912,-1.9898,-1.9961,-1.9973,-1.9953,-2.0002,-1.9978,-2.0029,-2.0016,-2.012,-2.0099,-2.0116,-2.0111,-2.0191,-2.0184,-2.0449,-2.0482,-2.0234,-2.0236,-2.0238,0,-1.9869,-1.9926,-1.9928,-1.9956,-1.9963,-2.0009,-2.0034,-1.9997,-2.0025,-2.0045,-2.0089,-2.0133,-2.0167,-2.0248,-2.0239,-2.0278,-2.0259,-2.0349,-2.0265,-2.0275,-2.0263,-2.0261,-2.0267,-2.0367,-2.037,-2.0372,-2.0374,0,-2.0085,-2.0069,-2.0106,-2.0139,-2.017,-2.0194,-2.0214,-2.0241,-2.0204,-2.0238,-2.0287,-2.0313,-2.0364,-2.0409,-2.0443,-2.0448,-2.0407,-2.04,-2.042,-2.0435,-2.0443,-2.0442,-2.0164,-2.0395,-2.0393,-2.0391,-2.039,-2.0389,-2.0246,-2.0294,-2.0302,-2.0345,-2.0356,-2.0376,-2.0419,-2.041,-2.045,-2.0488,-2.0463,-2.0521,-2.0533,-2.0574,-2.0585,-2.063,-2.0594,-2.0624,-2.0631,-2.064,-2.0652,-2.0433,-2.0636,-2.0635,-2.0634,-2.0634,-2.0633,0,-2.0461,-2.0462,-2.0502,-2.0531,-2.0565,-2.0519,-2.0539,-2.0571,-2.0622,-2.0636,-2.067,-2.0726,-2.0769,-2.0762,-2.0802,-2.0839,-2.0821,-2.0851,-2.085,-2.0852,-2.068,-2.0659,-2.0865,-2.0865,-2.0865,-2.0865,-2.0865,-2.0865,-2.0576,-2.0655,-2.0641,-2.0725,-2.0726,-2.0781,-2.0796,-2.0815,-2.0826,-2.089,-2.0925,-2.092,-2.0926,-2.0965,-2.1003,-2.1,-2.1018,-2.1056,-2.1046,-2.0887,-2.0864,-2.0842,-2.0822,-2.1059,-2.106,-2.1214,-2.1215,-2.1217]},{"header":{"parameterUnit":"m.s-1","parameterCategory":1,"la1":30.2991,"la2":30.254,"lo1":-89.0895,"lo2":-89.0444,"dy":0.0017,"dx":0.0017,"nx":28,"ny":28,"refTime":"2025-01-13T03:00:00:Z","depth":0,"parameterNumber":3,"parameterNumberName":"V-component_of_WINDS"},"data":[0,0,0,0,0,0,0,0,0,0,0,0,0,0,0,0,0,0,0,0,0,0,0,0,0,0,0,0,0,0,0,0,0,0,0,0,0,0,0,0,0,0,0,0,0,0,0,0,0,0,0,0,0,0,0,0,0,0,-4.7739,-4.774,0,-4.7811,-4.7812,-4.7813,-4.7738,-4.7735,-4.7732,-4.7729,-4.78,-4.7805,-4.7809,0,0,0,0,0,0,0,0,0,0,0,0,0,-4.7532,-4.7537,-4.7739,-4.774,-4.7741,-4.7811,-4.7812,-4.7813,-4.7738,-4.7734,-4.7731,-4.7728,-4.7799,-4.7804,-4.781,0,0,0,0,0,0,0,0,0,0,0,0,0,-4.7615,-4.7538,-4.7739,-4.7712,-4.771,-4.7811,-4.7812,-4.7814,-4.7739,-4.7734,-4.773,-4.7726,-4.7797,-4.7804,-4.7811,-4.7941,0,0,-4.7832,-4.7835,0,0,0,0,0,0,0,0,-4.7611,-4.7623,-4.7715,-4.7714,-4.7712,-4.7761,-4.7765,-4.7856,-4.774,-4.7728,-4.7729,-4.7724,-4.7791,-4.7798,-4.7821,-4.7944,-4.7947,-4.7832,-4.7837,-4.784,-4.7842,0,0,0,0,0,0,0,-4.7605,-4.7619,-4.7768,-4.7716,-4.7715,-4.7695,-4.7702,-4.7782,-4.7783,-4.7729,-4.7723,-4.7733,-4.7789,-4.7814,-4.7822,-4.7948,-4.7832,-4.7838,-4.7843,-4.7845,-4.818,-4.8185,0,0,0,0,0,0,-4.7603,-4.7615,-4.7765,-4.777,-4.765,-4.7702,-4.771,-4.775,-4.7782,-4.7782,-4.7737,-4.7729,-4.7805,-4.7814,-4.7824,-4.7978,-4.7839,-4.7846,-4.785,-4.8176,-4.8181,-4.8187,0,0,0,0,0,0,-4.7599,-4.7617,-4.7762,-4.7691,-4.7708,-4.7711,-4.7756,-4.7753,-4.7779,-4.7788,-4.7787,-4.7763,-4.7802,-4.7814,-4.7912,-4.798,-4.7849,-4.7855,-4.817,-4.8177,-4.8184,-4.8288,0,0,0,0,0,0,-4.7593,-4.7616,-4.7666,-4.7693,-4.7712,-4.7851,-4.776,-4.7758,-4.7791,-4.7782,-4.7812,-4.7813,-4.7799,-4.7902,-4.7919,-4.7987,-4.7861,-4.8164,-4.8173,-4.8182,-4.8278,-4.8297,-4.8314,0,0,0,0,0,-4.7586,-4.7692,-4.7669,-4.7688,-4.7776,-4.7855,-4.7866,-4.7849,-4.7797,-4.7847,-4.7853,-4.7812,-4.7969,-4.7913,-4.7931,-4.8002,-4.816,-4.8171,-4.8181,-4.827,-4.8294,-4.8313,0,0,0,0,0,0,-4.7673,-4.7695,-4.767,-4.7789,-4.7821,-4.7842,-4.7905,-4.7874,-4.7921,-4.791,-4.7886,-4.7893,-4.7997,-4.8009,-4.7946,-4.8129,-4.8056,-4.8071,-4.8117,-4.814,-4.8157,-4.8152,-4.7867,0,0,0,0,0,-4.7706,-4.777,-4.7785,-4.7888,-4.7906,-4.7903,-4.7937,-4.792,-4.7952,-4.7965,-4.7978,-4.8009,-4.8065,-4.8103,-4.8156,-4.8279,-4.8284,-4.8337,-4.8354,-4.8369,-4.8382,-4.8447,-4.8471,-4.8222,-4.8222,-4.8221,0,0,-4.7775,-4.7795,-4.7837,-4.7906,-4.7929,-4.7994,-4.7915,-4.7987,-4.8035,-4.7976,-4.8069,-4.8079,-4.8113,-4.8224,-4.8273,-4.8237,-4.8452,-4.8383,-4.8394,-4.84,-4.8461,-4.8484,-4.8505,-4.8229,-4.8228,-4.8226,0,0,-4.7934,-4.7956,-4.8044,-4.8069,-4.8104,-4.8101,-4.8122,-4.8149,-4.8153,-4.8247,-4.8203,-4.8259,-4.8357,-4.8382,-4.8408,-4.8575,-4.8539,-4.8593,-4.8686,-4.875,-4.8769,-4.8786,-4.8846,-4.8867,-4.8606,-4.8606,-4.8606,0,-4.8015,-4.8113,-4.8093,-4.8169,-4.82,-4.815,-4.8238,-4.8262,-4.8313,-4.8335,-4.8294,-4.8415,-4.8434,-4.855,-4.859,-4.8613,-4.8635,-4.8589,-4.8768,-4.8785,-4.8801,-4.8857,-4.8879,-4.8612,-4.8611,-4.8611,-4.861,0,-4.8211,-4.8279,-4.8345,-4.8396,-4.8435,-4.8516,-4.8507,-4.8548,-4.8529,-4.853,-4.8624,-4.8645,-4.87,-4.8727,-4.8708,-4.884,-4.8816,-4.8772,-4.8698,-4.8831,-4.8884,-4.8905,-4.8621,-4.8619,-4.8617,-4.8616,0,0,-4.8428,-4.8466,-4.8491,-4.8513,-4.8548,-4.8599,-4.8678,-4.8732,-4.8768,-4.8804,-4.8868,-4.8952,-4.8911,-4.894,-4.8924,-4.898,-4.911,-4.8928,-4.8929,-4.8961,-4.9255,-4.9288,-4.9313,-4.9086,-4.909,-4.9093,-4.9252,0,-4.8587,-4.8725,-4.8708,-4.8839,-4.8901,-4.8853,-4.8921,-4.8949,-4.8952,-4.9004,-4.9006,-4.9066,-4.9008,-4.9025,-4.9078,-4.9083,-4.9168,-4.9071,-4.9145,-4.9147,-4.9138,-4.9341,-4.9376,-4.9525,-4.9273,-4.9276,-4.9279,0,-4.8792,-4.8837,-4.8974,-4.8998,-4.9024,-4.9086,-4.9134,-4.9184,-4.9214,-4.9212,-4.9245,-4.9218,-4.9294,-4.9219,-4.9324,-4.9258,-4.9287,-4.9294,-4.9299,-4.9305,-4.9221,-4.9352,-4.9573,-4.9595,-4.9311,-4.9308,-4.9306,0,-4.8937,-4.903,-4.9124,-4.9144,-4.9176,-4.922,-4.9235,-4.9261,-4.9294,-4.9336,-4.9357,-4.9407,-4.9434,-4.9472,-4.9459,-4.9405,-4.9567,-4.949,-4.9566,-4.9567,-4.9602,-4.96,-4.9831,-4.9621,-4.9621,-4.9621,-4.962,0,-4.9117,-4.9202,-4.9189,-4.9247,-4.9341,-4.932,-4.9414,-4.9422,-4.9446,-4.9503,-4.9464,-4.9519,-4.9498,-4.9551,-4.9541,-4.9629,-4.9641,-4.9641,-4.9637,-4.9645,-4.9645,-4.9663,-4.9652,-4.9627,-4.9625,-4.9624,-4.9623,0,-4.9294,-4.9289,-4.9388,-4.9409,-4.9416,-4.9485,-4.9502,-4.9555,-4.9555,-4.9628,-4.9644,-4.9642,-4.9703,-4.9693,-4.9759,-4.9752,-4.9862,-4.9846,-4.9853,-4.9849,-4.9925,-4.9918,-5.0175,-5.0207,-4.9978,-4.998,-4.9982,0,-4.9409,-4.9474,-4.9502,-4.9539,-4.9557,-4.9616,-4.965,-4.9631,-4.9668,-4.9706,-4.9755,-4.9812,-4.9856,-4.9954,-4.9959,-5.0009,-4.9993,-5.008,-5.0,-5.0005,-4.9994,-4.999,-4.9996,-5.0095,-5.0098,-5.01,-5.0102,0,-4.9615,-4.9608,-4.966,-4.971,-4.9752,-4.979,-4.9825,-4.9856,-4.984,-4.9883,-4.9945,-4.9979,-5.0047,-5.0104,-5.015,-5.0164,-5.013,-5.0127,-5.0147,-5.0155,-5.0156,-5.0156,-4.9895,-5.0121,-5.0119,-5.0118,-5.0117,-5.0116,-4.9764,-4.9819,-4.9848,-4.9905,-4.9929,-4.9962,-5.0013,-5.0019,-5.007,-5.0124,-5.011,-5.0179,-5.0206,-5.0265,-5.0284,-5.0337,-5.0305,-5.0334,-5.0342,-5.0349,-5.0358,-5.0148,-5.0345,-5.0345,-5.0344,-5.0344,-5.0343,0,-4.9967,-4.9983,-5.0036,-5.0086,-5.0131,-5.0096,-5.0131,-5.0171,-5.0233,-5.0261,-5.0306,-5.0376,-5.043,-5.0438,-5.0489,-5.053,-5.0516,-5.0544,-5.0541,-5.0544,-5.0384,-5.0362,-5.0554,-5.0554,-5.0554,-5.0554,-5.0554,-5.0554,-5.0078,-5.0169,-5.0166,-5.0268,-5.0282,-5.0351,-5.0374,-5.0404,-5.0426,-5.0506,-5.0551,-5.0556,-5.0576,-5.0628,-5.0676,-5.0676,-5.0697,-5.0731,-5.0726,-5.0576,-5.0555,-5.0535,-5.0514,-5.0736,-5.0736,-5.0881,-5.0883,-5.0884]}]]